SINAH 1

Last updated on Sun Apr 12 2026 00:02:34 GMT+0000 (Coordinated Universal Time)

1 28893U 05043D 26101.49069692 .00000334 00000+0 72940-4 0 9992 2 28893 98.2749 235.4595 0015592 122.9830 237.2873 14.64111646 90769
UTC large
Height (km)
Speed (km/s)
/
Latitude / Longitude
Inclination (degrees)
Orbital Period (minutes)
Azimuth
Elevation
Range (km)
Doppler Factor

Next 0 passes for location: London (51.5072 / 0.1276)

Sorry there are no passes over London.